sat.trackr.live / text

‹ back to catalog

STARLINK-35914

NORAD 66532 · 2025-265S

PAYLOAD ACTIVE UNKNOWN

§ Identity

Operator
Country
US
Launch date
2025-11-19
Launch site
AFETR
Launch vehicle
Mass (kg)
RCS (m²)

Purposes: comms

External: N2YO · Heavens-Above · Gunter

§ Orbital elements

Epoch: 2026-05-25T04:55:39.038016Z

Period
94.26 min
Inclination
42.9996°
Eccentricity
0.0001436
Mean motion
15.27609756 rev/d
Perigee alt
482.0 km
Apogee alt
483.9 km
Semi-major
6,861.1 km
B*
5.5058e-4
RAAN
205.9784°
Arg perigee
269.7399°
Mean anomaly
90.3288°
Rev number
2,881

§ Raw data

STARLINK-359141 66532U 25265S   26145.20531294  .00014933  00000+0  55058-3 0  99912 66532  42.9996 205.9784 0001436 269.7399  90.3288 15.27609756 28814

JSON: /api/v1/satellites/66532 · /tle

For live sub-satellite position, see the globe view (requires WebGL).

§ Visibility from observer

Set your observer location to see the next 7 days of passes ≥ 10°. The values pass through the URL so the page stays shareable.

No JS? Fill the form by hand. The geolocation button needs JavaScript.